| time (UTC) | temp F | wind direction | speed knots | gust knots | rain 1hr in | rain 24hr in | rain mn in | humidity % | barometer mb |
| 20260509000509 | 48 | 338 | 0.9 | 1.7 | 0.00 | 0.00 | 0.00 | 68 | 1013.5 |
| 20260509000000 | 48 | 338 | 0.0 | 1.7 | 0.00 | 0.00 | 0.00 | 69 | 1013.5 |
| 20260508235451 | 48 | 338 | 0.0 | 1.7 | 0.00 | 0.00 | 0.00 | 69 | 1013.4 |
| 20260508234939 | 48 | 338 | 0.0 | 1.7 | 0.00 | 0.00 | 0.00 | 68 | 1013.3 |
| 20260508234429 | 48 | 0 | 0.0 | 1.7 | 0.00 | 0.00 | 0.00 | 69 | 1013.1 |
| 20260508233918 | 48 | 0 | 0.9 | 1.7 | 0.00 | 0.00 | 0.00 | 69 | 1013.1 |
| 20260508232858 | 51 | 0 | 0.0 | 0.0 | 0.00 | 0.00 | 0.00 | 65 | 1013.0 |
| 20260508232348 | 50 | 0 | 0.0 | 0.0 | 0.00 | 0.00 | 0.00 | 64 | 1013.0 |
| 20260508231838 | 50 | 0 | 0.0 | 0.0 | 0.00 | 0.00 | 0.00 | 64 | 1012.8 |
| 20260508231328 | 50 | 0 | 0.0 | 0.0 | 0.00 | 0.00 | 0.00 | 63 | 1012.6 |
| 20260508230818 | 50 | 0 | 0.0 | 0.0 | 0.00 | 0.00 | 0.00 | 64 | 1012.6 |
| 20260508230308 | 51 | 0 | 0.0 | 0.0 | 0.00 | 0.00 | 0.00 | 63 | 1012.2 |
| 20260508225248 | 51 | 0 | 0.0 | 0.0 | 0.00 | 0.00 | 0.00 | 63 | 1012.4 |
| 20260508224737 | 51 | 0 | 0.0 | 0.0 | 0.00 | 0.00 | 0.00 | 65 | 1012.4 |
| 20260508224227 | 50 | 0 | 0.0 | 0.0 | 0.00 | 0.00 | 0.00 | 62 | 1012.5 |
| 20260508223717 | 50 | 0 | 0.0 | 1.7 | 0.00 | 0.00 | 0.00 | 62 | 1012.5 |
| 20260508223207 | 50 | 0 | 0.0 | 1.7 | 0.00 | 0.00 | 0.00 | 61 | 1012.5 |
| 20260508222658 | 51 | 0 | 0.9 | 3.5 | 0.00 | 0.00 | 0.00 | 60 | 1012.5 |
| 20260508222147 | 52 | 0 | 1.7 | 3.5 | 0.00 | 0.00 | 0.00 | 58 | 1012.4 |
| 20260508221126 | 53 | 248 | 0.0 | 1.7 | 0.00 | 0.00 | 0.00 | 56 | 1012.1 |
| 20260508220616 | 54 | 225 | 0.0 | 1.7 | 0.00 | 0.00 | 0.00 | 55 | 1012.0 |
| 20260508220106 | 54 | 270 | 0.0 | 1.7 | 0.00 | 0.00 | 0.00 | 54 | 1012.0 |
| 20260508215556 | 54 | 270 | 0.0 | 1.7 | 0.00 | 0.00 | 0.00 | 54 | 1012.0 |
| 20260508215046 | 54 | 248 | 0.9 | 1.7 | 0.00 | 0.00 | 0.00 | 53 | 1011.9 |
| 20260508214536 | 55 | 203 | 0.9 | 1.7 | 0.00 | 0.00 | 0.00 | 52 | 1011.9 |
| 20260508214027 | 55 | 203 | 1.7 | 1.7 | 0.00 | 0.00 | 0.00 | 51 | 1012.0 |
| 20260508213014 | 56 | 225 | 0.9 | 1.7 | 0.00 | 0.00 | 0.00 | 49 | 1012.1 |
| 20260508212455 | 57 | 225 | 0.0 | 1.7 | 0.00 | 0.00 | 0.00 | 48 | 1012.0 |
| 20260508211945 | 58 | 225 | 0.0 | 1.7 | 0.00 | 0.00 | 0.00 | 47 | 1012.1 |
| 20260508211435 | 59 | 203 | 0.0 | 1.7 | 0.00 | 0.00 | 0.00 | 45 | 1012.2 |
| 20260508210925 | 60 | 225 | 0.0 | 3.5 | 0.00 | 0.00 | 0.00 | 44 | 1012.2 |
| 20260508205905 | 61 | 248 | 0.9 | 3.5 | 0.00 | 0.00 | 0.00 | 39 | 1012.0 |
| 20260508205354 | 62 | 248 | 1.7 | 3.5 | 0.00 | 0.00 | 0.00 | 39 | 1012.2 |
| 20260508204845 | 62 | 248 | 0.0 | 3.5 | 0.00 | 0.00 | 0.00 | 40 | 1012.1 |
| 20260508203824 | 62 | 248 | 0.9 | 3.5 | 0.00 | 0.00 | 0.00 | 37 | 1012.1 |
| 20260508203314 | 62 | 248 | 1.7 | 3.5 | 0.00 | 0.00 | 0.00 | 37 | 1011.9 |
| 20260508202805 | 63 | 225 | 1.7 | 7.8 | 0.00 | 0.00 | 0.00 | 37 | 1012.0 |
| 20260508202254 | 63 | 225 | 3.5 | 7.8 | 0.00 | 0.00 | 0.00 | 34 | 1011.8 |
| 20260508201744 | 63 | 180 | 1.7 | 6.1 | 0.00 | 0.00 | 0.00 | 36 | 1011.9 |
| 20260508201233 | 63 | 270 | 2.6 | 6.1 | 0.00 | 0.00 | 0.00 | 34 | 1011.8 |
| 20260508200724 | 63 | 248 | 1.7 | 6.1 | 0.00 | 0.00 | 0.00 | 35 | 1011.8 |
| 20260508200214 | 64 | 225 | 2.6 | 7.8 | 0.00 | 0.00 | 0.00 | 35 | 1011.9 |
| 20260508195703 | 64 | 158 | 2.6 | 7.8 | 0.00 | 0.00 | 0.00 | 35 | 1011.6 |
| 20260508195153 | 64 | 180 | 1.7 | 7.8 | 0.00 | 0.00 | 0.00 | 34 | 1011.7 |
| 20260508194643 | 64 | 270 | 2.6 | 9.6 | 0.00 | 0.00 | 0.00 | 34 | 1011.8 |
| 20260508194132 | 63 | 225 | 3.5 | 9.6 | 0.00 | 0.00 | 0.00 | 33 | 1011.7 |
| 20260508193623 | 64 | 248 | 3.5 | 9.6 | 0.00 | 0.00 | 0.00 | 32 | 1011.8 |
| 20260508192602 | 64 | 315 | 3.5 | 11.3 | 0.00 | 0.00 | 0.00 | 32 | 1012.0 |
| 20260508191543 | 64 | 225 | 3.5 | 9.6 | 0.00 | 0.00 | 0.00 | 32 | 1012.2 |
| 20260508191033 | 64 | 270 | 4.3 | 9.6 | 0.00 | 0.00 | 0.00 | 30 | 1012.2 |
| 20260508190523 | 64 | 248 | 1.7 | 9.6 | 0.00 | 0.00 | 0.00 | 31 | 1012.4 |
| 20260508190012 | 64 | 203 | 3.5 | 9.6 | 0.00 | 0.00 | 0.00 | 33 | 1012.4 |
| 20260508185502 | 63 | 248 | 2.6 | 9.6 | 0.00 | 0.00 | 0.00 | 30 | 1012.5 |
| 20260508184952 | 63 | 270 | 3.5 | 9.6 | 0.00 | 0.00 | 0.00 | 30 | 1012.6 |
| 20260508183932 | 63 | 248 | 1.7 | 14.8 | 0.00 | 0.00 | 0.00 | 31 | 1012.4 |
| 20260508183422 | 63 | 270 | 5.2 | 14.8 | 0.00 | 0.00 | 0.00 | 31 | 1012.7 |
| 20260508182912 | 64 | 270 | 6.1 | 12.2 | 0.00 | 0.00 | 0.00 | 31 | 1012.9 |
| 20260508182401 | 63 | 248 | 3.5 | 13.0 | 0.00 | 0.00 | 0.00 | 31 | 1012.9 |
| 20260508181851 | 63 | 270 | 7.0 | 13.0 | 0.00 | 0.00 | 0.00 | 32 | 1012.9 |
| 20260508181341 | 62 | 270 | 3.5 | 9.6 | 0.00 | 0.00 | 0.00 | 32 | 1013.1 |
| 20260508180831 | 62 | 203 | 3.5 | 11.3 | 0.00 | 0.00 | 0.00 | 33 | 1013.1 |
| 20260508175812 | 62 | 270 | 4.3 | 11.3 | 0.00 | 0.00 | 0.00 | 32 | 1013.3 |
| 20260508175301 | 62 | 270 | 6.1 | 13.9 | 0.00 | 0.00 | 0.00 | 32 | 1013.2 |
| 20260508174750 | 62 | 158 | 3.5 | 13.9 | 0.00 | 0.00 | 0.00 | 33 | 1013.4 |
| 20260508174240 | 61 | 248 | 7.0 | 12.2 | 0.00 | 0.00 | 0.00 | 32 | 1013.7 |
| 20260508173730 | 62 | 248 | 3.5 | 12.2 | 0.00 | 0.00 | 0.00 | 34 | 1013.6 |
| 20260508173220 | 62 | 248 | 3.5 | 12.2 | 0.00 | 0.00 | 0.00 | 32 | 1013.7 |
| 20260508172710 | 62 | 248 | 7.0 | 12.2 | 0.00 | 0.00 | 0.00 | 31 | 1014.0 |
| 20260508172200 | 62 | 180 | 3.5 | 13.9 | 0.00 | 0.00 | 0.00 | 32 | 1013.9 |
| 20260508171650 | 62 | 180 | 5.2 | 13.9 | 0.00 | 0.00 | 0.00 | 32 | 1013.9 |
| 20260508171140 | 62 | 270 | 2.6 | 9.6 | 0.00 | 0.00 | 0.00 | 31 | 1014.0 |
| 20260508170630 | 61 | 270 | 3.5 | 9.6 | 0.00 | 0.00 | 0.00 | 30 | 1013.8 |
| 20260508170119 | 61 | 248 | 3.5 | 12.2 | 0.00 | 0.00 | 0.00 | 32 | 1014.4 |
| 20260508165610 | 61 | 225 | 4.3 | 12.2 | 0.00 | 0.00 | 0.00 | 32 | 1014.3 |
| 20260508165059 | 60 | 270 | 6.1 | 13.9 | 0.00 | 0.00 | 0.00 | 31 | 1014.3 |
| 20260508164549 | 60 | 248 | 6.1 | 13.9 | 0.00 | 0.00 | 0.00 | 32 | 1014.5 |
| 20260508164039 | 60 | 0 | 4.3 | 13.9 | 0.00 | 0.00 | 0.00 | 33 | 1014.5 |
| 20260508163019 | 60 | 225 | 4.3 | 15.6 | 0.00 | 0.00 | 0.00 | 32 | 1014.7 |
| 20260508162509 | 60 | 203 | 5.2 | 11.3 | 0.00 | 0.00 | 0.00 | 33 | 1014.9 |
| 20260508160939 | 60 | 203 | 3.5 | 13.0 | 0.00 | 0.00 | 0.00 | 34 | 1015.2 |
| 20260508160428 | 60 | 338 | 5.2 | 13.0 | 0.00 | 0.00 | 0.00 | 32 | 1015.1 |
| 20260508155408 | 60 | 270 | 2.6 | 11.3 | 0.00 | 0.00 | 0.00 | 35 | 1015.4 |
| 20260508154857 | 59 | 293 | 3.5 | 12.2 | 0.00 | 0.00 | 0.00 | 35 | 1015.4 |
| 20260508154348 | 59 | 293 | 3.5 | 12.2 | 0.00 | 0.01 | 0.00 | 32 | 1015.6 |
| 20260508153837 | 59 | 203 | 4.3 | 11.3 | 0.00 | 0.01 | 0.00 | 35 | 1015.4 |
| 20260508153328 | 60 | 270 | 3.5 | 9.6 | 0.00 | 0.02 | 0.00 | 36 | 1015.3 |
| 20260508152818 | 59 | 203 | 1.7 | 9.6 | 0.00 | 0.04 | 0.00 | 37 | 1015.1 |
| 20260508152307 | 58 | 293 | 4.3 | 13.9 | 0.00 | 0.05 | 0.00 | 37 | 1015.4 |
| 20260508151757 | 58 | 225 | 6.1 | 13.9 | 0.00 | 0.06 | 0.00 | 36 | 1015.3 |
| 20260508151247 | 58 | 135 | 3.5 | 9.6 | 0.00 | 0.06 | 0.00 | 37 | 1015.4 |
| 20260508150737 | 58 | 225 | 3.5 | 9.6 | 0.00 | 0.07 | 0.00 | 37 | 1015.5 |
| 20260508150227 | 57 | 293 | 3.5 | 12.2 | 0.00 | 0.07 | 0.00 | 38 | 1015.5 |
| 20260508145716 | 57 | 270 | 2.6 | 12.2 | 0.00 | 0.08 | 0.00 | 38 | 1015.6 |
| 20260508145207 | 57 | 248 | 4.3 | 11.3 | 0.00 | 0.08 | 0.00 | 41 | 1015.7 |
| 20260508144656 | 57 | 293 | 2.6 | 11.3 | 0.00 | 0.09 | 0.00 | 42 | 1015.9 |
| 20260508143637 | 56 | 293 | 5.2 | 12.2 | 0.00 | 0.14 | 0.00 | 40 | 1016.0 |
| 20260508143126 | 56 | 270 | 6.1 | 13.0 | 0.00 | 0.14 | 0.00 | 41 | 1016.3 |
| 20260508142616 | 56 | 248 | 3.5 | 14.8 | 0.00 | 0.14 | 0.00 | 41 | 1016.3 |
| 20260508142106 | 56 | 270 | 5.2 | 14.8 | 0.00 | 0.14 | 0.00 | 42 | 1016.3 |
| 20260508141556 | 55 | 270 | 3.5 | 11.3 | 0.00 | 0.14 | 0.00 | 42 | 1016.4 |
| 20260508140541 | 55 | 203 | 3.5 | 12.2 | 0.00 | 0.14 | 0.00 | 43 | 1016.8 |
| 20260508140025 | 55 | 203 | 2.6 | 12.2 | 0.00 | 0.14 | 0.00 | 43 | 1016.6 |
| 20260508135516 | 55 | 270 | 4.3 | 13.0 | 0.00 | 0.14 | 0.00 | 43 | 1016.8 |
| 20260508135005 | 54 | 270 | 6.1 | 13.0 | 0.00 | 0.14 | 0.00 | 41 | 1016.7 |
| 20260508133945 | 54 | 293 | 3.5 | 12.2 | 0.00 | 0.14 | 0.00 | 44 | 1016.7 |
| 20260508133434 | 54 | 225 | 2.6 | 9.6 | 0.00 | 0.14 | 0.00 | 44 | 1016.8 |
| 20260508132414 | 54 | 248 | 3.5 | 9.6 | 0.00 | 0.14 | 0.00 | 47 | 1017.0 |
| 20260508131905 | 53 | 248 | 6.1 | 11.3 | 0.00 | 0.14 | 0.00 | 47 | 1017.0 |
| 20260508130845 | 53 | 270 | 4.3 | 11.3 | 0.00 | 0.14 | 0.00 | 47 | 1016.8 |
| 20260508130334 | 53 | 203 | 2.6 | 11.3 | 0.00 | 0.14 | 0.00 | 46 | 1016.7 |
| 20260508125825 | 53 | 248 | 5.2 | 11.3 | 0.00 | 0.15 | 0.00 | 49 | 1016.7 |
| 20260508124804 | 52 | 225 | 2.6 | 12.2 | 0.00 | 0.24 | 0.00 | 50 | 1016.6 |
| 20260508124254 | 51 | 270 | 7.0 | 12.2 | 0.00 | 0.24 | 0.00 | 50 | 1016.3 |
| 20260508123744 | 51 | 248 | 3.5 | 9.6 | 0.00 | 0.24 | 0.00 | 55 | 1016.6 |
| 20260508123233 | 51 | 225 | 3.5 | 9.6 | 0.00 | 0.24 | 0.00 | 56 | 1016.3 |
| 20260508122724 | 50 | 270 | 3.5 | 9.6 | 0.00 | 0.24 | 0.00 | 57 | 1016.4 |
| 20260508121703 | 50 | 225 | 1.7 | 7.0 | 0.00 | 0.24 | 0.00 | 57 | 1016.4 |
| 20260508121153 | 50 | 225 | 3.5 | 9.6 | 0.00 | 0.24 | 0.00 | 57 | 1016.1 |
| 20260508120643 | 49 | 248 | 3.5 | 9.6 | 0.00 | 0.24 | 0.00 | 57 | 1016.0 |
| 20260508120133 | 49 | 270 | 3.5 | 7.0 | 0.00 | 0.24 | 0.00 | 57 | 1016.1 |
| 20260508115622 | 49 | 225 | 3.5 | 9.6 | 0.00 | 0.24 | 0.00 | 57 | 1016.1 |
| 20260508115113 | 48 | 270 | 2.6 | 9.6 | 0.00 | 0.24 | 0.00 | 59 | 1016.0 |
| 20260508114603 | 47 | 248 | 3.5 | 9.6 | 0.00 | 0.24 | 0.00 | 60 | 1015.8 |
| 20260508114053 | 47 | 248 | 2.6 | 9.6 | 0.00 | 0.24 | 0.00 | 62 | 1015.7 |
| 20260508113542 | 46 | 248 | 2.6 | 12.2 | 0.00 | 0.24 | 0.00 | 62 | 1015.6 |
| 20260508113033 | 46 | 225 | 3.5 | 12.2 | 0.00 | 0.24 | 0.00 | 62 | 1015.6 |
| 20260508112012 | 46 | 225 | 3.5 | 7.0 | 0.00 | 0.24 | 0.00 | 62 | 1015.2 |
| 20260508111502 | 46 | 248 | 3.5 | 7.8 | 0.00 | 0.24 | 0.00 | 62 | 1015.2 |
| 20260508110952 | 46 | 248 | 3.5 | 7.8 | 0.00 | 0.24 | 0.00 | 62 | 1015.4 |
| 20260508110441 | 45 | 270 | 1.7 | 6.1 | 0.00 | 0.24 | 0.00 | 63 | 1015.1 |
| 20260508105931 | 45 | 203 | 1.7 | 7.0 | 0.00 | 0.24 | 0.00 | 64 | 1015.1 |
| 20260508105422 | 45 | 180 | 1.7 | 7.0 | 0.00 | 0.24 | 0.00 | 64 | 1014.9 |
| 20260508104911 | 44 | 225 | 2.6 | 6.1 | 0.00 | 0.24 | 0.00 | 66 | 1014.9 |
| 20260508104401 | 44 | 248 | 1.7 | 6.1 | 0.00 | 0.24 | 0.00 | 68 | 1014.7 |
| 20260508103851 | 43 | 248 | 1.7 | 6.1 | 0.00 | 0.24 | 0.00 | 69 | 1014.8 |
| 20260508103342 | 44 | 225 | 0.9 | 3.5 | 0.00 | 0.24 | 0.00 | 69 | 1014.4 |
| 20260508102831 | 44 | 225 | 0.9 | 3.5 | 0.00 | 0.24 | 0.00 | 68 | 1014.5 |
| 20260508101810 | 44 | 225 | 0.9 | 3.5 | 0.00 | 0.24 | 0.00 | 67 | 1014.2 |
| 20260508100751 | 45 | 248 | 1.7 | 5.2 | 0.00 | 0.24 | 0.00 | 66 | 1014.1 |
| 20260508095730 | 46 | 203 | 1.7 | 6.1 | 0.00 | 0.24 | 0.00 | 65 | 1014.0 |
| 20260508095220 | 46 | 248 | 1.7 | 7.0 | 0.00 | 0.24 | 0.00 | 64 | 1013.8 |
| 20260508094710 | 46 | 225 | 2.6 | 7.0 | 0.00 | 0.24 | 0.00 | 63 | 1014.1 |
| 20260508094200 | 46 | 203 | 1.7 | 6.1 | 0.00 | 0.24 | 0.00 | 63 | 1013.9 |
| 20260508093649 | 46 | 248 | 2.6 | 6.1 | 0.00 | 0.24 | 0.00 | 63 | 1013.9 |
| 20260508093140 | 47 | 248 | 1.7 | 7.0 | 0.00 | 0.24 | 0.00 | 62 | 1013.6 |
| 20260508092629 | 47 | 180 | 1.7 | 7.0 | 0.00 | 0.24 | 0.00 | 61 | 1013.4 |
| 20260508092120 | 47 | 248 | 1.7 | 6.1 | 0.00 | 0.24 | 0.00 | 61 | 1013.4 |
| 20260508091609 | 47 | 248 | 1.7 | 7.8 | 0.00 | 0.24 | 0.00 | 61 | 1013.2 |
| 20260508091059 | 47 | 225 | 2.6 | 9.6 | 0.00 | 0.25 | 0.00 | 60 | 1013.3 |
| 20260508090549 | 47 | 180 | 3.5 | 9.6 | 0.00 | 0.27 | 0.00 | 60 | 1012.9 |
| 20260508085528 | 47 | 248 | 1.7 | 11.3 | 0.00 | 0.27 | 0.00 | 60 | 1013.2 |
| 20260508085019 | 47 | 248 | 2.6 | 6.1 | 0.00 | 0.27 | 0.00 | 61 | 1013.1 |
| 20260508084516 | 47 | 225 | 1.7 | 7.0 | 0.00 | 0.27 | 0.00 | 62 | 1013.1 |
| 20260508083449 | 46 | 225 | 3.5 | 5.2 | 0.00 | 0.27 | 0.00 | 63 | 1013.0 |
| 20260508082939 | 46 | 180 | 1.7 | 7.0 | 0.00 | 0.27 | 0.00 | 63 | 1012.8 |
| 20260508081919 | 47 | 248 | 1.7 | 7.8 | 0.00 | 0.27 | 0.00 | 63 | 1012.7 |
| 20260508081409 | 47 | 203 | 2.6 | 7.8 | 0.00 | 0.27 | 0.00 | 63 | 1012.5 |
| 20260508080857 | 46 | 225 | 2.6 | 9.6 | 0.00 | 0.27 | 0.00 | 63 | 1012.4 |
| 20260508080348 | 46 | 225 | 2.6 | 9.6 | 0.00 | 0.27 | 0.00 | 64 | 1012.2 |
| 20260508075838 | 45 | 203 | 1.7 | 7.0 | 0.00 | 0.27 | 0.00 | 66 | 1012.1 |
| 20260508075328 | 45 | 203 | 1.7 | 6.1 | 0.00 | 0.27 | 0.00 | 68 | 1012.1 |
| 20260508074307 | 44 | 203 | 1.7 | 7.8 | 0.00 | 0.28 | 0.00 | 69 | 1011.9 |
| 20260508073757 | 44 | 225 | 3.5 | 7.8 | 0.00 | 0.28 | 0.00 | 69 | 1011.8 |
| 20260508072736 | 45 | 203 | 1.7 | 6.1 | 0.00 | 0.28 | 0.00 | 68 | 1011.9 |
| 20260508072227 | 45 | 225 | 1.7 | 7.0 | 0.00 | 0.28 | 0.00 | 68 | 1011.4 |
| 20260508071717 | 45 | 225 | 1.7 | 7.0 | 0.00 | 0.30 | 0.00 | 67 | 1011.5 |
| 20260508071207 | 45 | 203 | 2.6 | 7.0 | 0.00 | 0.51 | 0.00 | 67 | 1011.4 |
| 20260508070147 | 45 | 203 | 1.7 | 7.0 | 0.00 | 0.57 | 0.00 | 68 | 1011.4 |
| 20260508065636 | 45 | 203 | 1.7 | 7.0 | 0.00 | 0.57 | 0.00 | 68 | 1011.5 |
| 20260508065127 | 45 | 225 | 1.7 | 7.0 | 0.00 | 0.58 | 0.00 | 68 | 1011.7 |
| 20260508064616 | 45 | 248 | 1.7 | 7.0 | 0.00 | 0.65 | 0.00 | 67 | 1011.7 |
| 20260508064105 | 46 | 225 | 1.7 | 5.2 | 0.00 | 0.67 | 0.00 | 67 | 1011.8 |
| 20260508063556 | 46 | 203 | 1.7 | 6.1 | 0.00 | 0.67 | 0.00 | 67 | 1011.8 |
| 20260508063051 | 46 | 203 | 1.7 | 7.0 | 0.00 | 0.67 | 0.00 | 66 | 1011.6 |
| 20260508062536 | 47 | 248 | 1.7 | 7.0 | 0.00 | 0.67 | 0.00 | 66 | 1011.8 |
| 20260508062025 | 47 | 225 | 3.5 | 7.0 | 0.00 | 0.67 | 0.00 | 65 | 1011.7 |
| 20260508061516 | 47 | 293 | 2.6 | 7.0 | 0.00 | 0.67 | 0.00 | 65 | 1011.7 |
| 20260508060455 | 48 | 225 | 1.7 | 6.1 | 0.00 | 0.67 | 0.00 | 62 | 1011.9 |
| 20260508055945 | 48 | 225 | 1.7 | 7.0 | 0.00 | 0.67 | 0.00 | 62 | 1012.0 |
| 20260508055435 | 48 | 248 | 1.7 | 7.0 | 0.00 | 0.67 | 0.00 | 62 | 1012.1 |
| 20260508054415 | 47 | 225 | 1.7 | 7.0 | 0.00 | 0.67 | 0.00 | 63 | 1012.3 |
| 20260508053905 | 47 | 225 | 2.6 | 5.2 | 0.00 | 0.67 | 0.00 | 64 | 1012.2 |
| 20260508052844 | 47 | 270 | 3.5 | 7.0 | 0.00 | 0.67 | 0.00 | 65 | 1012.4 |
| 20260508052334 | 46 | 225 | 1.7 | 3.5 | 0.00 | 0.67 | 0.00 | 67 | 1012.4 |
| 20260508051823 | 46 | 225 | 1.7 | 3.5 | 0.00 | 0.67 | 0.00 | 67 | 1012.3 |
| 20260508051314 | 46 | 248 | 1.7 | 3.5 | 0.00 | 0.67 | 0.00 | 67 | 1012.3 |
| 20260508050253 | 47 | 225 | 1.7 | 5.2 | 0.00 | 0.67 | 0.00 | 65 | 1012.6 |
| 20260508045744 | 47 | 270 | 0.9 | 5.2 | 0.00 | 0.67 | 0.00 | 65 | 1012.5 |
| 20260508045234 | 47 | 225 | 0.9 | 3.5 | 0.00 | 0.67 | 0.00 | 65 | 1012.4 |
| 20260508044723 | 47 | 225 | 1.7 | 3.5 | 0.00 | 0.67 | 0.00 | 65 | 1012.5 |
| 20260508044213 | 47 | 293 | 1.7 | 6.1 | 0.00 | 0.67 | 0.00 | 65 | 1012.5 |
| 20260508043703 | 47 | 248 | 1.7 | 6.1 | 0.00 | 0.67 | 0.00 | 65 | 1012.3 |
| 20260508043152 | 48 | 270 | 1.7 | 6.1 | 0.00 | 0.67 | 0.00 | 64 | 1012.6 |
| 20260508042133 | 48 | 248 | 3.5 | 7.0 | 0.00 | 0.67 | 0.00 | 62 | 1012.4 |
| 20260508041623 | 47 | 270 | 1.7 | 6.1 | 0.00 | 0.67 | 0.00 | 64 | 1012.4 |
| 20260508041112 | 47 | 270 | 1.7 | 5.2 | 0.00 | 0.67 | 0.00 | 66 | 1012.5 |
| 20260508040602 | 46 | 270 | 1.7 | 5.2 | 0.00 | 0.67 | 0.00 | 70 | 1012.4 |
| 20260508035543 | 46 | 293 | 1.7 | 6.1 | 0.00 | 0.67 | 0.00 | 70 | 1012.3 |
| 20260508035032 | 46 | 248 | 2.6 | 5.2 | 0.00 | 0.67 | 0.00 | 70 | 1012.3 |
| 20260508034522 | 46 | 293 | 1.7 | 5.2 | 0.00 | 0.67 | 0.00 | 71 | 1012.4 |
| 20260508034012 | 45 | 293 | 1.7 | 3.5 | 0.00 | 0.67 | 0.00 | 71 | 1012.4 |
| 20260508033502 | 46 | 270 | 0.9 | 3.5 | 0.00 | 0.67 | 0.00 | 71 | 1012.4 |
| 20260508032952 | 46 | 293 | 1.7 | 3.5 | 0.00 | 0.67 | 0.00 | 70 | 1012.5 |
| 20260508031931 | 47 | 293 | 1.7 | 3.5 | 0.00 | 0.67 | 0.00 | 68 | 1012.2 |
| 20260508031421 | 47 | 293 | 1.7 | 3.5 | 0.00 | 0.67 | 0.00 | 70 | 1012.3 |
| 20260508030912 | 47 | 248 | 0.0 | 1.7 | 0.00 | 0.67 | 0.00 | 69 | 1012.0 |
| 20260508030401 | 47 | 248 | 0.0 | 1.7 | 0.00 | 0.67 | 0.00 | 68 | 1011.7 |
| 20260508025851 | 48 | 248 | 0.0 | 3.5 | 0.00 | 0.67 | 0.67 | 67 | 1011.8 |
| 20260508025340 | 48 | 270 | 1.7 | 3.5 | 0.00 | 0.67 | 0.67 | 66 | 1012.0 |
| 20260508024830 | 48 | 248 | 1.7 | 3.5 | 0.00 | 0.67 | 0.67 | 66 | 1011.9 |
| 20260508024321 | 48 | 248 | 1.7 | 3.5 | 0.00 | 0.67 | 0.67 | 66 | 1011.7 |
| 20260508023810 | 48 | 248 | 1.7 | 3.5 | 0.00 | 0.67 | 0.67 | 66 | 1011.8 |
| 20260508023300 | 48 | 225 | 1.7 | 3.5 | 0.00 | 0.67 | 0.67 | 66 | 1011.9 |
| 20260508022242 | 48 | 248 | 1.7 | 3.5 | 0.00 | 0.67 | 0.67 | 66 | 1011.8 |
| 20260508021730 | 48 | 248 | 1.7 | 3.5 | 0.00 | 0.67 | 0.67 | 67 | 1011.9 |
| 20260508021220 | 48 | 225 | 1.7 | 3.5 | 0.00 | 0.67 | 0.67 | 68 | 1011.7 |
| 20260508020709 | 48 | 270 | 1.7 | 3.5 | 0.00 | 0.67 | 0.67 | 69 | 1011.9 |
| 20260508020159 | 48 | 270 | 1.7 | 3.5 | 0.00 | 0.67 | 0.67 | 69 | 1011.7 |
| 20260508015650 | 48 | 248 | 1.7 | 3.5 | 0.00 | 0.67 | 0.67 | 70 | 1011.8 |
| 20260508015139 | 48 | 270 | 1.7 | 3.5 | 0.00 | 0.67 | 0.67 | 70 | 1011.8 |
| 20260508014630 | 48 | 225 | 1.7 | 3.5 | 0.00 | 0.67 | 0.67 | 70 | 1011.8 |
| 20260508014119 | 48 | 225 | 1.7 | 3.5 | 0.00 | 0.67 | 0.67 | 71 | 1011.8 |
| 20260508013609 | 49 | 225 | 0.9 | 3.5 | 0.00 | 0.67 | 0.67 | 71 | 1012.0 |
| 20260508012551 | 49 | 293 | 1.7 | 5.2 | 0.00 | 0.67 | 0.67 | 71 | 1012.0 |
| 20260508012039 | 49 | 270 | 2.6 | 5.2 | 0.00 | 0.67 | 0.67 | 70 | 1011.8 |
| 20260508011529 | 49 | 248 | 2.6 | 3.5 | 0.00 | 0.67 | 0.67 | 69 | 1011.8 |
| 20260508011019 | 50 | 270 | 1.7 | 3.5 | 0.00 | 0.67 | 0.67 | 69 | 1011.8 |
| 20260508010509 | 50 | 248 | 1.7 | 5.2 | 0.00 | 0.67 | 0.67 | 68 | 1011.9 |
| 20260508005959 | 50 | 270 | 1.7 | 5.2 | 0.00 | 0.67 | 0.67 | 68 | 1011.9 |
| 20260508004959 | 50 | 270 | 2.6 | 5.2 | 0.00 | 0.67 | 0.67 | 69 | 1011.6 |
| 20260508004429 | 49 | 270 | 1.7 | 3.5 | 0.00 | 0.67 | 0.67 | 71 | 1011.8 |
| 20260508003919 | 50 | 270 | 1.7 | 3.5 | 0.00 | 0.67 | 0.67 | 70 | 1011.6 |
| 20260508003407 | 50 | 225 | 1.7 | 3.5 | 0.00 | 0.67 | 0.67 | 70 | 1011.7 |
| 20260508002901 | 49 | 270 | 1.7 | 3.5 | 0.00 | 0.67 | 0.67 | 71 | 1011.7 |
| 20260508002350 | 49 | 270 | 1.7 | 3.5 | 0.00 | 0.67 | 0.67 | 72 | 1011.7 |
| 20260508001837 | 49 | 248 | 1.7 | 3.5 | 0.00 | 0.67 | 0.67 | 72 | 1011.6 |
| 20260508001327 | 50 | 293 | 1.7 | 3.5 | 0.00 | 0.67 | 0.67 | 72 | 1011.5 |